CHOLLIMA-1 R/B

Satellite information

Favourite Embed

Satellite Type and Status

ROCKET BODYIN ORBIT

Key statistics

Satellite CHOLLIMA-1 R/B at a glance.

Uptime

594

Days in orbit

Revolutions

≈ 15.4

Per day

Orbit

SSO

Sun Synchronous Orbit

Inclination

97.3

Latest

Satellite identification and parameters

Extended collection of information and parameters for CHOLLIMA-1 R/B.

Object identification

Identified? True

Debris? False

Object name: CHOLLIMA-1 R/B

International designator: 2023-179B

Object number (NORAD): 58401

Object ID (CCSDS): 58401

Country: NORTH KOREA (NKOR)

Current information (Y/N): Y

RCS size: LARGE

Orbital parameters

Period: 93.237 minutes

Inclination: 97.343 deg

SMA: 6811.107 km

Apoapsis: 447.926 km

Periapsis: 418.019 km

RAAN: 82.5706 deg

Eccentricy: 0.0021955

Argument of periapsis: 347.7294 deg

Mean anomaly: 12.3417 deg

Mean motion: 15.44458219 rev/day

Mean motion (dot): 0.00012708 rev/day2

B* drag term: 0.00027394 1/REarth

Two-line elements (TLE)

Creation date: July 6, 2025, 6:05 p.m.

Reference frame: TEME

Reference center: EARTH

Epoch: July 6, 2025, 2:33 p.m. UTC

TLE line 0: 0 CHOLLIMA-1 R/B

TLE line 1: 1 58401U 23179B 25187.60670804 .00012708 00000-0 27394-3 0 9990

TLE line 2: 2 58401 97.3430 82.5706 0021955 347.7294 12.3417 15.44458219 90877

Live tracking on map

Real-time ground track for satellite CHOLLIMA-1 R/B.

In-orbit conjunctions

A list of the most updated potential collisions computed for object CHOLLIMA-1 R/B.

Target Orbit TCA Probability of collision Miss distance Type
CZ-2C R/B LEO 2025-06-09 23:29:27 0.000688275 590.0 (m) ROCKET BODY
GFO SSO 2025-04-30 19:06:09 0.0005046756 686.0 (m) PAYLOAD

Associated space launch

Malligyong-1c (meaning "Telescope-1") is the third attempt by North Korea to launch a satellite officially declared to be for military reconnaissance purposes, and the first successful one. It became the third North Korean satellite to reach orbit.

CHOLLIMA-1 R/B was lifted into orbit during the mission ‘Chollima-1 | Malligyong-1c’, on board a Chollima-1 space rocket.

The launch took place on Nov. 21, 2023, 1:42 p.m. from Malligyong-1 Pad.

For more information about the launch, click the button.

Launch to space Chollima-1 | Malligyong-1c
Chollima-1 | Malligyong-1c

Agency: National Aerospace Development Administration

Status: Launch Successful

Launch date: Nov. 21, 2023, 1:42 p.m. UTC

Rocket: Chollima-1

Launch pad: Malligyong-1 Pad

Location: Sohae Satellite Launching Station, Cholsan County, North Pyongan Province, Democratic People's Republic of Korea

...

Latest news about this satellite

News about space launch
North Korea Launches First Domestic Spysat

2023 has been a remarkable time for international spaceflight, but spaceflight does not exist in a vacuum beyond geopolitics, and while some achievements can be hailed on the international stage, others are the grounds for concern and suspicion. This fact...

News about space launch
Rocket Report: Beyond Gravity to study fairing reuse; North Korea launches satellite

"I conclude the objects are the spy satellite and the rocket upper stage."


Newsletter sign-up

Weekly statistics, charts and insights to help you stay on top of the space industry.